STARLINK-5463 (55673 NORAD) Tracking and Keplerian Element Data

This shows tracking and keplerian element data for the satellite.

Feedback or suggestion? Click here.




ElementValue
Catalog55673
NameSTARLINK-5463
Epoch Orbit625
Epoch Day85.16884457
Epoch Year2023
RAAN47.5853
Inclination70.0031
Eccentricity0.0002492
Argument of Perigee252.6549
Mean Anonmoly107.4374
Mean Motion15.69947822
Decay Rate0.00012178
L11 55673U 23021AX 23085.16884457 .00012178 00000+0 10281-3 0 9998
L22 55673 70.0031 47.5853 0002492 252.6549 107.4374 15.69947822 6253



Live tracking and technical data element details for STARLINK-5463 (NORAD 55673). STARLINK-5463 can be tracked NOW for your location showing map with azimuth and elevation plus other details from your city location.







IsCatalogInMostPopularTable: catalog: 55673, numindb: 2
Update: records affected: 1



GetName: 55673 STARLINK-5463

Hit Count: updated at: Tue, 28 Mar 2023 02:09:59 GMT